Regional Weather Roundup
Issued by NWS

Home | Current Version | Previous Version | Graphics & Text | Print | Product List | Glossary On
Versions: 1 2 3 4 5 6 7 8 9 10 11 12 13 14 15 16 17 18 19 20 21 22 23 24 25 26 27 28 29 30 31 32 33 34 35 36 37 38 39 40 41 42 43 44 45 46 47 48 49 50
000
ASUS43 KBIS 070401
RWRND

NORTH DAKOTA REGIONAL WEATHER ROUNDUP
NATIONAL WEATHER SERVICE BISMARCK ND
1100 PM CDT WED MAY 06 2015

NOTE: "FAIR" INDICATES FEW OR NO CLOUDS BELOW 12,000 FEET WITH NO
SIGNIFICANT WEATHER AND/OR OBSTRUCTIONS TO VISIBILITY.


NDZ001>003-009>011-017-070500-
NORTHWEST NORTH DAKOTA

CITY           SKY/WX    TMP DP  RH WIND       PRES   REMARKS
WILLISTON      CLOUDY    52  48  86 N13       29.76R
MINOT          LGT RAIN  58  56  93 NW16      29.66R
$$

NDZ018>021-031>035-040>046-070500-
SOUTHWEST NORTH DAKOTA

CITY           SKY/WX    TMP DP  RH WIND       PRES   REMARKS
BISMARCK       CLOUDY    61  57  87 NW6       29.62S
DICKINSON      LGT RAIN  49  47  93 NW20G31   29.70R
GARRISON         N/A     58  57  97 N14G20    29.65R
HETTINGER ARPT LGT RAIN  50  48  93 N22G32    29.70R FOG
$$

NDZ004>008-012>016-024-026-027-054-070500-
NORTHEAST NORTH DAKOTA

CITY           SKY/WX    TMP DP  RH WIND       PRES   REMARKS
GRAND FORKS    CLOUDY    63  60  90 SE14      29.65F
GRND FRKS AFB  CLOUDY    60  58  93 SE9       29.65F
DEVILS LAKE    CLOUDY    59  55  88 SE8       29.63F
$$

NDZ022-023-025-028>030-036>039-047>053-070500-
SOUTHEAST NORTH DAKOTA

CITY           SKY/WX    TMP DP  RH WIND       PRES   REMARKS
FARGO          MOCLDY    65  61  87 SE16G25   29.67S
JAMESTOWN      MOCLDY    61  59  93 SE14      29.61S
$$




USA.gov is the U.S. government's official web portal to all federal, state and local government web resources and services.